Time,TemperatureF,DewpointF,PressureIn,WindDirection,WindDirectionDegrees,WindSpeedMPH,WindSpeedGustMPH,Humidity,HourlyPrecipIn,Conditions,Clouds,dailyrainin,SoftwareType,DateUTC
2013-03-19 00:10:00,39.2,38.7,29.58,South,180,4.7,-999.0,98,-99.99,,,0.00,Acu-Link.com,2013-03-19 04:10:00,
2013-03-19 00:25:00,38.3,37.8,29.60,SSW,202,9.4,-999.0,98,-99.99,,,0.00,Acu-Link.com,2013-03-19 04:25:00,
2013-03-19 00:40:00,37.6,37.1,29.59,South,180,8.3,-999.0,98,-99.99,,,0.00,Acu-Link.com,2013-03-19 04:40:00,
2013-03-19 00:55:00,36.5,34.9,29.59,ESE,112,14.5,-999.0,94,-99.99,,,0.00,Acu-Link.com,2013-03-19 04:55:00,
2013-03-19 01:11:00,36.0,33.9,29.60,SSE,157,6.8,-999.0,92,-99.99,,,0.00,Acu-Link.com,2013-03-19 05:11:00,
2013-03-19 01:56:00,35.2,31.4,29.61,South,180,10.4,-999.0,86,-99.99,,,0.00,Acu-Link.com,2013-03-19 05:56:00,
2013-03-19 02:11:00,34.9,30.6,29.62,SSW,202,10.4,-999.0,84,-99.99,,,0.00,Acu-Link.com,2013-03-19 06:11:00,
2013-03-19 02:27:00,34.7,29.8,29.62,SW,225,5.3,-999.0,82,-99.99,,,0.00,Acu-Link.com,2013-03-19 06:27:00,
2013-03-19 02:42:00,34.5,29.6,29.61,West,270,5.8,-999.0,82,-99.99,,,0.00,Acu-Link.com,2013-03-19 06:42:00,
2013-03-19 02:57:00,34.2,29.3,29.61,South,180,3.7,-999.0,82,-99.99,,,0.00,Acu-Link.com,2013-03-19 06:57:00,
2013-03-19 03:12:00,33.6,29.3,29.61,SW,225,7.3,-999.0,84,-99.99,,,0.00,Acu-Link.com,2013-03-19 07:12:00,
2013-03-19 03:27:00,33.8,29.2,29.61,WSW,247,8.3,-999.0,83,-99.99,,,0.00,Acu-Link.com,2013-03-19 07:27:00,
2013-03-19 03:43:00,34.0,29.1,29.60,SW,225,5.3,-999.0,82,-99.99,,,0.00,Acu-Link.com,2013-03-19 07:43:00,
2013-03-19 03:58:00,34.2,29.3,29.61,SW,225,0.0,-999.0,82,-99.99,,,0.00,Acu-Link.com,2013-03-19 07:58:00,
2013-03-19 04:13:00,34.5,29.3,29.61,SSW,202,4.7,-999.0,81,-99.99,,,0.00,Acu-Link.com,2013-03-19 08:13:00,
2013-03-19 04:28:00,34.9,29.4,29.61,WSW,247,2.7,-999.0,80,-99.99,,,0.00,Acu-Link.com,2013-03-19 08:28:00,
2013-03-19 04:43:00,34.9,29.1,29.60,SSE,157,3.2,-999.0,79,-99.99,,,0.00,Acu-Link.com,2013-03-19 08:43:00,
2013-03-19 04:58:00,34.7,29.5,29.61,South,180,4.2,-999.0,81,-99.99,,,0.00,Acu-Link.com,2013-03-19 08:58:00,
2013-03-19 05:14:00,34.2,29.3,29.62,SSE,157,6.3,-999.0,82,-99.99,,,0.00,Acu-Link.com,2013-03-19 09:14:00,
2013-03-19 05:29:00,33.4,27.6,29.63,SSE,157,8.3,-999.0,79,-99.99,,,0.00,Acu-Link.com,2013-03-19 09:29:00,
2013-03-19 05:44:00,32.5,26.7,29.63,SSW,202,6.8,-999.0,79,-99.99,,,0.00,Acu-Link.com,2013-03-19 09:44:00,
2013-03-19 05:59:00,31.6,24.9,29.63,SSE,157,7.3,-999.0,76,-99.99,,,0.00,Acu-Link.com,2013-03-19 09:59:00,
2013-03-19 06:14:00,30.4,23.4,29.63,SSW,202,4.2,-999.0,75,-99.99,,,0.00,Acu-Link.com,2013-03-19 10:14:00,
2013-03-19 06:30:00,29.7,23.1,29.65,South,180,7.3,-999.0,76,-99.99,,,0.00,Acu-Link.com,2013-03-19 10:30:00,
2013-03-19 06:45:00,28.9,22.6,29.64,South,180,9.9,-999.0,77,-99.99,,,0.00,Acu-Link.com,2013-03-19 10:45:00,
2013-03-19 07:00:00,28.4,21.8,29.66,South,180,7.3,-999.0,76,-99.99,,,0.00,Acu-Link.com,2013-03-19 11:00:00,
2013-03-19 07:15:00,28.0,21.4,29.65,SSW,202,11.9,-999.0,76,-99.99,,,0.00,Acu-Link.com,2013-03-19 11:15:00,
2013-03-19 07:31:00,27.9,21.3,29.67,SW,225,9.4,-999.0,76,-99.99,,,0.00,Acu-Link.com,2013-03-19 11:31:00,
2013-03-19 07:46:00,27.9,21.6,29.65,SSE,157,13.0,-999.0,77,-99.99,,,0.00,Acu-Link.com,2013-03-19 11:46:00,
2013-03-19 08:01:00,27.9,22.2,29.66,SSE,157,7.3,-999.0,79,-99.99,,,0.00,Acu-Link.com,2013-03-19 12:01:00,
2013-03-19 08:16:00,27.7,22.1,29.66,South,180,5.8,-999.0,79,-99.99,,,0.00,Acu-Link.com,2013-03-19 12:16:00,
2013-03-19 08:47:00,27.0,21.4,29.68,SSW,202,4.7,-999.0,79,-99.99,,,0.00,Acu-Link.com,2013-03-19 12:47:00,
2013-03-19 09:02:00,26.2,20.3,29.69,SSW,202,9.9,-999.0,78,-99.99,,,0.00,Acu-Link.com,2013-03-19 13:02:00,
2013-03-19 09:17:00,25.9,20.3,29.67,South,180,6.8,-999.0,79,-99.99,,,0.00,Acu-Link.com,2013-03-19 13:17:00,
2013-03-19 09:32:00,25.9,20.6,29.67,WSW,247,4.7,-999.0,80,-99.99,,,0.00,Acu-Link.com,2013-03-19 13:32:00,
2013-03-19 09:47:00,25.7,19.8,29.66,NW,315,9.9,-999.0,78,-99.99,,,0.00,Acu-Link.com,2013-03-19 13:47:00,
2013-03-19 10:03:00,25.3,19.4,29.68,South,180,5.3,-999.0,78,-99.99,,,0.00,Acu-Link.com,2013-03-19 14:03:00,
2013-03-19 10:18:00,25.0,18.5,29.68,WSW,247,4.2,-999.0,76,-99.99,,,0.00,Acu-Link.com,2013-03-19 14:18:00,
2013-03-19 10:33:00,25.2,17.5,29.69,South,180,3.7,-999.0,72,-99.99,,,0.00,Acu-Link.com,2013-03-19 14:33:00,
2013-03-19 10:48:00,24.3,18.1,29.69,SSW,202,5.3,-999.0,77,-99.99,,,0.00,Acu-Link.com,2013-03-19 14:48:00,
2013-03-19 11:04:00,24.4,20.0,29.69,WSW,247,4.7,-999.0,83,-99.99,,,0.00,Acu-Link.com,2013-03-19 15:04:00,
2013-03-19 11:19:00,26.2,19.7,29.70,South,180,4.7,-999.0,76,-99.99,,,0.00,Acu-Link.com,2013-03-19 15:19:00,
2013-03-19 11:34:00,26.4,18.0,29.70,South,180,9.4,-999.0,70,-99.99,,,0.00,Acu-Link.com,2013-03-19 15:34:00,
2013-03-19 11:49:00,26.6,18.5,29.70,SSE,157,10.4,-999.0,71,-99.99,,,0.00,Acu-Link.com,2013-03-19 15:49:00,
2013-03-19 12:04:00,25.3,20.9,29.70,South,180,5.3,-999.0,83,-99.99,,,0.00,Acu-Link.com,2013-03-19 16:04:00,
2013-03-19 12:20:00,27.7,21.1,29.71,West,270,4.7,-999.0,76,-99.99,,,0.00,Acu-Link.com,2013-03-19 16:20:00,
2013-03-19 12:35:00,26.4,20.5,29.71,South,180,4.7,-999.0,78,-99.99,,,0.00,Acu-Link.com,2013-03-19 16:35:00,
2013-03-19 12:50:00,28.2,21.3,29.70,SSW,202,8.9,-999.0,75,-99.99,,,0.00,Acu-Link.com,2013-03-19 16:50:00,
2013-03-19 13:05:00,27.9,18.7,29.71,SSW,202,7.3,-999.0,68,-99.99,,,0.00,Acu-Link.com,2013-03-19 17:05:00,
2013-03-19 13:20:00,27.7,20.2,29.71,South,180,7.3,-999.0,73,-99.99,,,0.00,Acu-Link.com,2013-03-19 17:20:00,
2013-03-19 13:36:00,29.7,20.5,29.71,South,180,5.8,-999.0,68,-99.99,,,0.00,Acu-Link.com,2013-03-19 17:36:00,
2013-03-19 14:06:00,28.9,19.0,29.71,West,270,6.8,-999.0,66,-99.99,,,0.00,Acu-Link.com,2013-03-19 18:06:00,
2013-03-19 14:21:00,28.4,18.5,29.72,SSW,202,6.8,-999.0,66,-99.99,,,0.00,Acu-Link.com,2013-03-19 18:21:00,
2013-03-19 14:52:00,28.4,19.6,29.72,South,180,10.4,-999.0,69,-99.99,,,0.00,Acu-Link.com,2013-03-19 18:52:00,
2013-03-19 15:07:00,28.2,18.0,29.73,South,180,11.4,-999.0,65,-99.99,,,0.00,Acu-Link.com,2013-03-19 19:07:00,
2013-03-19 15:22:00,29.3,18.3,29.73,SSW,202,10.4,-999.0,63,-99.99,,,0.00,Acu-Link.com,2013-03-19 19:22:00,
2013-03-19 15:37:00,28.4,19.6,29.73,SW,225,5.8,-999.0,69,-99.99,,,0.00,Acu-Link.com,2013-03-19 19:37:00,
2013-03-19 15:53:00,28.8,18.5,29.74,SW,225,7.8,-999.0,65,-99.99,,,0.00,Acu-Link.com,2013-03-19 19:53:00,
2013-03-19 16:08:00,28.8,19.2,29.74,SSE,157,11.4,-999.0,67,-99.99,,,0.00,Acu-Link.com,2013-03-19 20:08:00,
2013-03-19 16:23:00,28.8,18.2,29.75,West,270,6.3,-999.0,64,-99.99,,,0.00,Acu-Link.com,2013-03-19 20:23:00,
2013-03-19 16:38:00,28.6,17.6,29.76,SW,225,13.0,-999.0,63,-99.99,,,0.00,Acu-Link.com,2013-03-19 20:38:00,
2013-03-19 16:53:00,28.8,18.5,29.76,SSE,157,10.4,-999.0,65,-99.99,,,0.00,Acu-Link.com,2013-03-19 20:53:00,
2013-03-19 17:09:00,28.4,18.9,29.77,SW,225,3.2,-999.0,67,-99.99,,,0.00,Acu-Link.com,2013-03-19 21:09:00,
2013-03-19 17:24:00,28.0,19.5,29.78,SW,225,5.8,-999.0,70,-99.99,,,0.00,Acu-Link.com,2013-03-19 21:24:00,
2013-03-19 17:39:00,28.6,17.6,29.78,South,180,6.8,-999.0,63,-99.99,,,0.00,Acu-Link.com,2013-03-19 21:39:00,
2013-03-19 17:54:00,29.5,18.8,29.79,South,180,2.7,-999.0,64,-99.99,,,0.00,Acu-Link.com,2013-03-19 21:54:00,
2013-03-19 18:10:00,28.9,17.9,29.78,SSE,157,7.8,-999.0,63,-99.99,,,0.00,Acu-Link.com,2013-03-19 22:10:00,
2013-03-19 18:25:00,28.8,17.8,29.79,South,180,7.8,-999.0,63,-99.99,,,0.00,Acu-Link.com,2013-03-19 22:25:00,
2013-03-19 18:40:00,28.8,18.2,29.78,SSW,202,13.0,-999.0,64,-99.99,,,0.00,Acu-Link.com,2013-03-19 22:40:00,
2013-03-19 18:55:00,28.9,17.5,29.79,SW,225,5.8,-999.0,62,-99.99,,,0.00,Acu-Link.com,2013-03-19 22:55:00,
2013-03-19 19:10:00,28.4,17.8,29.79,SW,225,4.7,-999.0,64,-99.99,,,0.00,Acu-Link.com,2013-03-19 23:10:00,
2013-03-19 19:26:00,28.4,18.2,29.80,WSW,247,4.7,-999.0,65,-99.99,,,0.00,Acu-Link.com,2013-03-19 23:26:00,
2013-03-19 19:56:00,28.2,19.0,29.81,South,180,5.3,-999.0,68,-99.99,,,0.00,Acu-Link.com,2013-03-19 23:56:00,
2013-03-19 20:11:00,28.2,19.0,29.82,SSW,202,4.2,-999.0,68,-99.99,,,0.00,Acu-Link.com,2013-03-20 00:11:00,
2013-03-19 20:26:00,28.2,19.4,29.81,SSE,157,14.5,-999.0,69,-99.99,,,0.00,Acu-Link.com,2013-03-20 00:26:00,
2013-03-19 20:42:00,28.0,19.5,29.82,SSW,202,7.3,-999.0,70,-99.99,,,0.00,Acu-Link.com,2013-03-20 00:42:00,
2013-03-19 20:57:00,28.0,19.5,29.81,SSE,157,8.9,-999.0,70,-99.99,,,0.00,Acu-Link.com,2013-03-20 00:57:00,
2013-03-19 21:12:00,27.9,19.4,29.82,WSW,247,6.3,-999.0,70,-99.99,,,0.00,Acu-Link.com,2013-03-20 01:12:00,
2013-03-19 21:27:00,27.5,19.7,29.82,WSW,247,3.7,-999.0,72,-99.99,,,0.00,Acu-Link.com,2013-03-20 01:27:00,
2013-03-19 21:43:00,27.5,19.7,29.83,SSE,157,7.3,-999.0,72,-99.99,,,0.00,Acu-Link.com,2013-03-20 01:43:00,
2013-03-19 21:58:00,27.1,19.6,29.82,South,180,4.2,-999.0,73,-99.99,,,0.00,Acu-Link.com,2013-03-20 01:58:00,
2013-03-19 22:13:00,27.1,19.6,29.83,South,180,3.2,-999.0,73,-99.99,,,0.00,Acu-Link.com,2013-03-20 02:13:00,
2013-03-19 22:28:00,27.1,19.6,29.83,SSW,202,4.2,-999.0,73,-99.99,,,0.00,Acu-Link.com,2013-03-20 02:28:00,
2013-03-19 22:43:00,27.0,19.5,29.83,South,180,3.2,-999.0,73,-99.99,,,0.00,Acu-Link.com,2013-03-20 02:43:00,
2013-03-19 22:59:00,27.0,19.2,29.83,South,180,7.8,-999.0,72,-99.99,,,0.00,Acu-Link.com,2013-03-20 02:59:00,
2013-03-19 23:14:00,27.3,19.2,29.83,SW,225,8.3,-999.0,71,-99.99,,,0.00,Acu-Link.com,2013-03-20 03:14:00,
2013-03-19 23:29:00,27.3,18.5,29.84,South,180,3.7,-999.0,69,-99.99,,,0.00,Acu-Link.com,2013-03-20 03:29:00,
2013-03-19 23:45:00,27.3,18.5,29.83,SSW,202,9.4,-999.0,69,-99.99,,,0.00,Acu-Link.com,2013-03-20 03:45:00,